Regional Weather Roundup
Issued by NWS Binghamton, NY

Home | Current Version | Previous Version | Text Only | Print | Product List | Glossary On
Versions: 1 2 3 4 5 6 7 8 9 10 11 12 13 14 15 16 17 18 19 20 21 22 23 24 25 26 27 28 29 30 31 32 33 34 35 36 37 38 39 40 41 42 43 44 45 46 47 48 49 50
000
ASUS41 KBGM 281410
RWRBGM
RWRBGM
BINGHAMTON REGIONAL WEATHER ROUNDUP
NATIONAL WEATHER SERVICE BINGHAMTON NY
900 AM EST FRI NOV 28 2014

Note: "fair" indicates few or no clouds below 12,000 feet with no
significant weather and/or obstructions to visibility.

* = Station(s) that does not report precipitation, such as rain,
snow, etc, also no thunder or fog.

!NYZ009-015>018-022>025-036-037-044>046-055>057-062-281500
...CENTRAL NEW YORK...

CITY           SKY/WX    TMP DP  RH WIND       PRES   REMARKS
BINGHAMTON     SUNNY     35  14  42 NW14G20   30.13R WCI  26
CORTLAND       FAIR      23  18  80 W7        30.18R WCI  15
DANSVILLE      MOSUNNY   20  10  65 N7        30.25R WCI  11
ELMIRA         SUNNY     25  12  58 W7        30.22R WCI  17
ITHACA         MOSUNNY   23  14  68 W8        30.20R WCI  14
MONTICELLO     PTSUNNY   25  19  80 NW7       30.12R WCI  17
PENN YAN       PTSUNNY   24  13  62 W12       30.21R WCI  13
ROME           LGT SNOW  23  20  88 NW5       30.18R FOG     WCI  17
SYRACUSE       LGT SNOW  25  19  78 W21       30.20R WCI  11
$$

!PAZ038>040-043-044-047-048-072-281500
...NORTHEAST PENNSYLVANIA...

CITY           SKY/WX    TMP DP  RH WIND       PRES   REMARKS
HAZLETON       CLOUDY    28  21  74 W14       30.18R WCI  17
SCRANTON       PTSUNNY   27  19  72 NW10      30.18R WCI  17
$$
&&
KEY
WCI = WIND CHILL INDEX
VSB = VISIBILITY
HX  = HEAT INDEX
$$


USA.gov is the U.S. government's official web portal to all federal, state and local government web resources and services.